TimeEST,TemperatureF,Dew PointF,Humidity,Sea Level PressureIn,VisibilityMPH,Wind Direction,Wind SpeedMPH,Gust SpeedMPH,PrecipitationIn,Events,Conditions,WindDirDegrees,DateUTC
12:53 AM,55.0,48.0,77,30.16,10.0,North,10.4,-,N/A,,Clear,360,2013-11-28 05:53:00
1:53 AM,52.0,45.0,77,30.16,10.0,North,12.7,24.2,N/A,,Clear,360,2013-11-28 06:53:00
2:53 AM,48.9,43.0,80,30.18,10.0,NNE,10.4,-,N/A,,Partly Cloudy,30,2013-11-28 07:53:00
3:21 AM,48.2,42.8,82,30.18,10.0,NNE,10.4,17.3,N/A,,Mostly Cloudy,30,2013-11-28 08:21:00
3:53 AM,48.0,42.1,80,30.19,10.0,NNE,9.2,-,N/A,,Mostly Cloudy,30,2013-11-28 08:53:00
4:22 AM,48.2,41.0,76,30.20,10.0,NNE,8.1,-,N/A,,Scattered Clouds,30,2013-11-28 09:22:00
4:53 AM,46.9,39.9,77,30.21,10.0,North,10.4,-,N/A,,Partly Cloudy,360,2013-11-28 09:53:00
5:40 AM,46.4,39.2,76,30.23,10.0,North,8.1,18.4,N/A,,Mostly Cloudy,10,2013-11-28 10:40:00
5:53 AM,46.0,39.9,79,30.23,10.0,NNE,10.4,-,N/A,,Mostly Cloudy,20,2013-11-28 10:53:00
6:26 AM,44.6,39.2,81,30.23,10.0,NNE,9.2,-,N/A,,Scattered Clouds,20,2013-11-28 11:26:00
6:53 AM,44.1,39.0,82,30.25,10.0,North,8.1,-,N/A,,Clear,10,2013-11-28 11:53:00
7:53 AM,45.0,37.9,76,30.26,10.0,NNE,10.4,16.1,N/A,,Clear,20,2013-11-28 12:53:00
8:53 AM,48.9,39.9,71,30.27,10.0,NNE,12.7,-,N/A,,Clear,20,2013-11-28 13:53:00
9:53 AM,53.1,41.0,64,30.27,10.0,NNE,10.4,-,N/A,,Clear,20,2013-11-28 14:53:00
10:53 AM,57.9,43.0,58,30.27,10.0,North,10.4,-,N/A,,Clear,10,2013-11-28 15:53:00
11:53 AM,63.0,45.0,52,30.24,10.0,North,10.4,-,N/A,,Clear,360,2013-11-28 16:53:00
12:53 PM,66.9,46.9,49,30.20,10.0,NE,12.7,18.4,N/A,,Clear,40,2013-11-28 17:53:00
1:53 PM,69.1,46.9,45,30.18,10.0,NNE,8.1,-,N/A,,Clear,20,2013-11-28 18:53:00
2:53 PM,71.1,50.0,47,30.16,10.0,ENE,15.0,20.7,N/A,,Clear,60,2013-11-28 19:53:00
3:53 PM,70.0,51.1,51,30.17,10.0,NE,12.7,-,N/A,,Partly Cloudy,50,2013-11-28 20:53:00
4:53 PM,69.1,52.0,54,30.19,10.0,NE,9.2,19.6,N/A,,Clear,50,2013-11-28 21:53:00
5:53 PM,66.0,52.0,60,30.22,10.0,NE,8.1,-,N/A,,Partly Cloudy,40,2013-11-28 22:53:00
6:53 PM,64.9,54.0,68,30.24,10.0,NE,6.9,-,N/A,,Scattered Clouds,40,2013-11-28 23:53:00
7:53 PM,64.0,54.0,70,30.26,10.0,NNE,6.9,-,N/A,,Partly Cloudy,20,2013-11-29 00:53:00
8:53 PM,63.0,54.0,72,30.27,10.0,North,10.4,17.3,N/A,,Clear,10,2013-11-29 01:53:00
9:53 PM,61.0,54.0,78,30.26,10.0,NNE,11.5,21.9,N/A,,Clear,30,2013-11-29 02:53:00
10:53 PM,60.1,54.0,80,30.26,10.0,NNE,10.4,-,N/A,,Partly Cloudy,30,2013-11-29 03:53:00
11:53 PM,59.0,54.0,83,30.25,10.0,NNE,8.1,-,N/A,,Clear,30,2013-11-29 04:53:00